Year,Month,Day,Hour,Minute,Value (Times are PST for temperature in C)
2006,06,24,00,00,16.40
2006,06,24,00,01,16.40
2006,06,24,00,02,16.40
2006,06,24,00,03,16.30
2006,06,24,00,04,16.30
2006,06,24,00,05,16.30
2006,06,24,00,06,16.30
2006,06,24,00,07,16.30
2006,06,24,00,08,16.30
2006,06,24,00,09,16.30
2006,06,24,00,10,16.20
2006,06,24,00,11,16.20
2006,06,24,00,12,16.20
2006,06,24,00,13,16.20
2006,06,24,00,14,16.20
2006,06,24,00,15,16.20
2006,06,24,00,16,16.20
2006,06,24,00,17,16.20
2006,06,24,00,18,16.10
2006,06,24,00,19,16.10
2006,06,24,00,20,16.10
2006,06,24,00,21,16.10
2006,06,24,00,22,16.10
2006,06,24,00,23,16.10
2006,06,24,00,24,16.10
2006,06,24,00,25,16.10
2006,06,24,00,26,16.00
2006,06,24,00,27,15.90
2006,06,24,00,28,15.90
2006,06,24,00,29,15.90
2006,06,24,00,30,15.90
2006,06,24,00,31,15.90
2006,06,24,00,32,15.90
2006,06,24,00,33,15.90
2006,06,24,00,34,15.90
2006,06,24,00,35,15.90
2006,06,24,00,36,15.90
2006,06,24,00,37,15.90
2006,06,24,00,38,15.90
2006,06,24,00,39,15.80
2006,06,24,00,40,15.80
2006,06,24,00,41,15.80
2006,06,24,00,42,15.80
2006,06,24,00,43,15.80
2006,06,24,00,44,15.80
2006,06,24,00,45,15.70
2006,06,24,00,46,15.70
2006,06,24,00,47,15.60
2006,06,24,00,48,15.50
2006,06,24,00,49,15.50
2006,06,24,00,50,15.40
2006,06,24,00,51,15.40
2006,06,24,00,52,15.30
2006,06,24,00,53,15.30
2006,06,24,00,54,15.20
2006,06,24,00,55,15.20
2006,06,24,00,56,15.20
2006,06,24,00,57,15.10
2006,06,24,00,58,15.10
2006,06,24,00,59,15.00
2006,06,24,01,00,15.00
2006,06,24,01,01,15.00
2006,06,24,01,02,14.90
2006,06,24,01,03,14.90
2006,06,24,01,04,14.90
2006,06,24,01,05,14.80
2006,06,24,01,06,14.80
2006,06,24,01,07,14.80
2006,06,24,01,08,14.80
2006,06,24,01,09,14.80
2006,06,24,01,10,14.80
2006,06,24,01,11,14.80
2006,06,24,01,12,14.80
2006,06,24,01,13,14.80
2006,06,24,01,14,14.80
2006,06,24,01,15,14.80
2006,06,24,01,16,14.80
2006,06,24,01,17,14.80
2006,06,24,01,18,14.80
2006,06,24,01,19,14.80
2006,06,24,01,20,14.80
2006,06,24,01,21,14.80
2006,06,24,01,22,14.80
2006,06,24,01,23,14.80
2006,06,24,01,24,14.80
2006,06,24,01,25,14.80
2006,06,24,01,26,14.80
2006,06,24,01,27,14.70
2006,06,24,01,28,14.70
2006,06,24,01,29,14.60
2006,06,24,01,30,14.60
2006,06,24,01,31,14.60
2006,06,24,01,32,14.50
2006,06,24,01,33,14.50
2006,06,24,01,34,14.40
2006,06,24,01,35,14.40
2006,06,24,01,36,14.30
2006,06,24,01,37,14.20
2006,06,24,01,38,14.20
2006,06,24,01,39,14.20
2006,06,24,01,40,14.10
2006,06,24,01,41,14.00
2006,06,24,01,42,13.90
2006,06,24,01,43,13.90
2006,06,24,01,44,13.80
2006,06,24,01,45,13.80
2006,06,24,01,46,13.70
2006,06,24,01,47,13.70
2006,06,24,01,48,13.70
2006,06,24,01,49,13.60
2006,06,24,01,50,13.60
2006,06,24,01,51,13.60
2006,06,24,01,52,13.50
2006,06,24,01,53,13.50
2006,06,24,01,54,13.50
2006,06,24,01,55,13.50
2006,06,24,01,56,13.40
2006,06,24,01,57,13.40
2006,06,24,01,58,13.30
2006,06,24,01,59,13.30
2006,06,24,02,00,13.30
2006,06,24,02,01,13.30
2006,06,24,02,02,13.30
2006,06,24,02,03,13.20
2006,06,24,02,04,13.20
2006,06,24,02,05,13.20
2006,06,24,02,06,13.10
2006,06,24,02,07,13.10
2006,06,24,02,08,13.10
2006,06,24,02,09,13.00
2006,06,24,02,10,13.00
2006,06,24,02,11,12.90
2006,06,24,02,12,12.90
2006,06,24,02,13,12.90
2006,06,24,02,14,12.90
2006,06,24,02,15,12.90
2006,06,24,02,16,12.90
2006,06,24,02,17,12.90
2006,06,24,02,18,12.90
2006,06,24,02,19,12.90
2006,06,24,02,20,12.90
2006,06,24,02,21,12.90
2006,06,24,02,22,12.90
2006,06,24,02,23,13.00
2006,06,24,02,24,13.00
2006,06,24,02,25,13.00
2006,06,24,02,26,13.00
2006,06,24,02,27,13.00
2006,06,24,02,28,13.00
2006,06,24,02,29,13.00
2006,06,24,02,30,13.00
2006,06,24,02,31,13.00
2006,06,24,02,32,13.00
2006,06,24,02,33,13.00
2006,06,24,02,34,13.10
2006,06,24,02,35,13.10
2006,06,24,02,36,13.10
2006,06,24,02,37,13.10
2006,06,24,02,38,13.10
2006,06,24,02,39,13.10
2006,06,24,02,40,13.10
2006,06,24,02,41,13.10
2006,06,24,02,42,13.10
2006,06,24,02,43,13.00
2006,06,24,02,44,13.00
2006,06,24,02,45,13.00
2006,06,24,02,46,13.00
2006,06,24,02,47,12.90
2006,06,24,02,48,12.90
2006,06,24,02,49,12.90
2006,06,24,02,50,12.90
2006,06,24,02,51,12.90
2006,06,24,02,52,12.90
2006,06,24,02,53,12.90
2006,06,24,02,54,12.80
2006,06,24,02,55,12.80
2006,06,24,02,56,12.80
2006,06,24,02,57,12.80
2006,06,24,02,58,12.80
2006,06,24,02,59,12.80
2006,06,24,03,00,12.80
2006,06,24,03,01,12.80
2006,06,24,03,02,12.80
2006,06,24,03,03,12.70
2006,06,24,03,04,12.70
2006,06,24,03,05,12.70
2006,06,24,03,06,12.70
2006,06,24,03,07,12.60
2006,06,24,03,08,12.60
2006,06,24,03,09,12.60
2006,06,24,03,10,12.60
2006,06,24,03,11,12.50
2006,06,24,03,12,12.50
2006,06,24,03,13,12.50
2006,06,24,03,14,12.40
2006,06,24,03,15,12.40
2006,06,24,03,16,12.40
2006,06,24,03,17,12.40
2006,06,24,03,18,12.40
2006,06,24,03,19,12.40
2006,06,24,03,20,12.40
2006,06,24,03,21,12.40
2006,06,24,03,22,12.40
2006,06,24,03,23,12.40
2006,06,24,03,24,12.40
2006,06,24,03,25,12.40
2006,06,24,03,26,12.50
2006,06,24,03,27,12.50
2006,06,24,03,28,12.50
2006,06,24,03,29,12.50
2006,06,24,03,30,12.60
2006,06,24,03,31,12.60
2006,06,24,03,32,12.60
2006,06,24,03,33,12.60
2006,06,24,03,34,12.60
2006,06,24,03,35,12.60
2006,06,24,03,36,12.60
2006,06,24,03,37,12.60
2006,06,24,03,38,12.60
2006,06,24,03,39,12.60
2006,06,24,03,40,12.50
2006,06,24,03,41,12.50
2006,06,24,03,42,12.40
2006,06,24,03,43,12.40
2006,06,24,03,44,12.40
2006,06,24,03,45,12.30
2006,06,24,03,46,12.30
2006,06,24,03,47,12.30
2006,06,24,03,48,12.30
2006,06,24,03,49,12.30
2006,06,24,03,50,12.30
2006,06,24,03,51,12.30
2006,06,24,03,52,12.30
2006,06,24,03,53,12.30
2006,06,24,03,54,12.30
2006,06,24,03,55,12.20
2006,06,24,03,56,12.20
2006,06,24,03,57,12.20
2006,06,24,03,58,12.20
2006,06,24,03,59,12.10
2006,06,24,04,00,12.10
2006,06,24,04,01,12.10
2006,06,24,04,02,12.20
2006,06,24,04,03,12.10
2006,06,24,04,04,12.10
2006,06,24,04,05,12.10
2006,06,24,04,06,12.10
2006,06,24,04,07,12.10
2006,06,24,04,08,12.10
2006,06,24,04,09,12.00
2006,06,24,04,10,12.00
2006,06,24,04,11,12.00
2006,06,24,04,12,12.00
2006,06,24,04,13,12.00
2006,06,24,04,14,12.00
2006,06,24,04,15,12.00
2006,06,24,04,16,12.10
2006,06,24,04,17,12.10
2006,06,24,04,18,12.10
2006,06,24,04,19,12.10
2006,06,24,04,20,12.10
2006,06,24,04,21,12.10
2006,06,24,04,22,12.20
2006,06,24,04,23,12.20
2006,06,24,04,24,12.20
2006,06,24,04,25,12.20
2006,06,24,04,26,12.20
2006,06,24,04,27,12.20
2006,06,24,04,28,12.20
2006,06,24,04,29,12.20
2006,06,24,04,30,12.20
2006,06,24,04,31,12.20
2006,06,24,04,32,12.20
2006,06,24,04,33,12.10
2006,06,24,04,34,12.10
2006,06,24,04,35,12.00
2006,06,24,04,36,12.00
2006,06,24,04,37,12.00
2006,06,24,04,38,11.90
2006,06,24,04,39,11.90
2006,06,24,04,40,11.90
2006,06,24,04,41,11.90
2006,06,24,04,42,12.00
2006,06,24,04,43,12.00
2006,06,24,04,44,12.10
2006,06,24,04,45,12.10
2006,06,24,04,46,12.20
2006,06,24,04,47,12.20
2006,06,24,04,48,12.30
2006,06,24,04,49,12.30
2006,06,24,04,50,12.30
2006,06,24,04,51,12.30
2006,06,24,04,52,12.20
2006,06,24,04,53,12.20
2006,06,24,04,54,12.20
2006,06,24,04,55,12.20
2006,06,24,04,56,12.20
2006,06,24,04,57,12.10
2006,06,24,04,58,12.10
2006,06,24,04,59,12.10
2006,06,24,05,00,12.10
2006,06,24,05,01,12.00
2006,06,24,05,02,12.00
2006,06,24,05,03,12.00
2006,06,24,05,04,11.90
2006,06,24,05,05,11.90
2006,06,24,05,06,11.90
2006,06,24,05,07,11.90
2006,06,24,05,08,11.80
2006,06,24,05,09,11.80
2006,06,24,05,10,11.80
2006,06,24,05,11,11.80
2006,06,24,05,12,11.70
2006,06,24,05,13,11.70
2006,06,24,05,14,11.70
2006,06,24,05,15,11.60
2006,06,24,05,16,11.60
2006,06,24,05,17,11.50
2006,06,24,05,18,11.40
2006,06,24,05,19,11.40
2006,06,24,05,20,11.40
2006,06,24,05,21,11.40
2006,06,24,05,22,11.40
2006,06,24,05,23,11.40
2006,06,24,05,24,11.30
2006,06,24,05,25,11.30
2006,06,24,05,26,11.30
2006,06,24,05,27,11.30
2006,06,24,05,28,11.30
2006,06,24,05,29,11.30
2006,06,24,05,30,11.30
2006,06,24,05,31,11.30
2006,06,24,05,32,11.20
2006,06,24,05,33,11.30
2006,06,24,05,34,11.20
2006,06,24,05,35,11.20
2006,06,24,05,36,11.20
2006,06,24,05,37,11.20
2006,06,24,05,38,11.20
2006,06,24,05,39,11.20
2006,06,24,05,40,11.10
2006,06,24,05,41,11.10
2006,06,24,05,42,11.10
2006,06,24,05,43,11.10
2006,06,24,05,44,11.10
2006,06,24,05,45,11.10
2006,06,24,05,46,11.10
2006,06,24,05,47,11.10
2006,06,24,05,48,11.10
2006,06,24,05,49,11.10
2006,06,24,05,50,11.10
2006,06,24,05,51,11.10
2006,06,24,05,52,11.10
2006,06,24,05,53,11.10
2006,06,24,05,54,11.10
2006,06,24,05,55,11.10
2006,06,24,05,56,11.10
2006,06,24,05,57,11.10
2006,06,24,05,58,11.10
2006,06,24,05,59,11.10
2006,06,24,06,00,11.10
2006,06,24,06,01,11.10
2006,06,24,06,02,11.10
2006,06,24,06,03,11.10
2006,06,24,06,04,11.10
2006,06,24,06,05,11.20
2006,06,24,06,06,11.20
2006,06,24,06,07,11.30
2006,06,24,06,08,11.30
2006,06,24,06,09,11.40
2006,06,24,06,10,11.40
2006,06,24,06,11,11.40
2006,06,24,06,12,11.40
2006,06,24,06,13,11.40
2006,06,24,06,14,11.40
2006,06,24,06,15,11.40
2006,06,24,06,16,11.40
2006,06,24,06,17,11.40
2006,06,24,06,18,11.50
2006,06,24,06,19,11.50
2006,06,24,06,20,11.40
2006,06,24,06,21,11.50
2006,06,24,06,22,11.60
2006,06,24,06,23,11.60
2006,06,24,06,24,11.60
2006,06,24,06,25,11.60
2006,06,24,06,26,11.60
2006,06,24,06,27,11.60
2006,06,24,06,28,11.60
2006,06,24,06,29,11.70
2006,06,24,06,30,11.70
2006,06,24,06,31,11.70
2006,06,24,06,32,11.80
2006,06,24,06,33,11.80
2006,06,24,06,34,11.80
2006,06,24,06,35,11.80
2006,06,24,06,36,11.80
2006,06,24,06,37,11.90
2006,06,24,06,38,12.00
2006,06,24,06,39,12.00
2006,06,24,06,40,12.10
2006,06,24,06,41,12.10
2006,06,24,06,42,12.10
2006,06,24,06,43,12.20
2006,06,24,06,44,12.20
2006,06,24,06,45,12.20
2006,06,24,06,46,12.30
2006,06,24,06,47,12.30
2006,06,24,06,48,12.30
2006,06,24,06,49,12.30
2006,06,24,06,50,12.30
2006,06,24,06,51,12.40
2006,06,24,06,52,12.40
2006,06,24,06,53,12.40
2006,06,24,06,54,12.50
2006,06,24,06,55,12.50
2006,06,24,06,56,12.60
2006,06,24,06,57,12.60
2006,06,24,06,58,12.70
2006,06,24,06,59,12.70
2006,06,24,07,00,12.80
2006,06,24,07,01,12.80
2006,06,24,07,02,12.80
2006,06,24,07,03,12.90
2006,06,24,07,04,12.90
2006,06,24,07,05,13.00
2006,06,24,07,06,13.10
2006,06,24,07,07,13.10
2006,06,24,07,08,13.10
2006,06,24,07,09,13.20
2006,06,24,07,10,13.20
2006,06,24,07,11,13.30
2006,06,24,07,12,13.30
2006,06,24,07,13,13.40
2006,06,24,07,14,13.50
2006,06,24,07,15,13.50
2006,06,24,07,16,13.60
2006,06,24,07,17,13.60
2006,06,24,07,18,13.70
2006,06,24,07,19,13.70
2006,06,24,07,20,13.80
2006,06,24,07,21,13.90
2006,06,24,07,22,14.10
2006,06,24,07,23,14.20
2006,06,24,07,24,14.40
2006,06,24,07,25,14.50
2006,06,24,07,26,14.70
2006,06,24,07,27,14.80
2006,06,24,07,28,15.00
2006,06,24,07,29,15.10
2006,06,24,07,30,15.20
2006,06,24,07,31,15.30
2006,06,24,07,32,15.40
2006,06,24,07,33,15.60
2006,06,24,07,34,15.70
2006,06,24,07,35,15.80
2006,06,24,07,36,15.90
2006,06,24,07,37,15.90
2006,06,24,07,38,15.90
2006,06,24,07,39,15.90
2006,06,24,07,40,15.90
2006,06,24,07,41,15.90
2006,06,24,07,42,15.80
2006,06,24,07,43,15.80
2006,06,24,07,44,15.80
2006,06,24,07,45,15.80
2006,06,24,07,46,15.90
2006,06,24,07,47,16.00
2006,06,24,07,48,16.10
2006,06,24,07,49,16.20
2006,06,24,07,50,16.30
2006,06,24,07,51,16.40
2006,06,24,07,52,16.50
2006,06,24,07,53,16.60
2006,06,24,07,54,16.70
2006,06,24,07,55,16.70
2006,06,24,07,56,16.90
2006,06,24,07,57,17.00
2006,06,24,07,58,17.10
2006,06,24,07,59,17.10
2006,06,24,08,00,17.20
2006,06,24,08,01,17.30
2006,06,24,08,02,17.40
2006,06,24,08,03,17.50
2006,06,24,08,04,17.50
2006,06,24,08,05,17.60
2006,06,24,08,06,17.70
2006,06,24,08,07,17.80
2006,06,24,08,08,17.80
2006,06,24,08,09,17.90
2006,06,24,08,10,18.00
2006,06,24,08,11,18.10
2006,06,24,08,12,18.10
2006,06,24,08,13,18.20
2006,06,24,08,14,18.20
2006,06,24,08,15,18.30
2006,06,24,08,16,18.40
2006,06,24,08,17,18.40
2006,06,24,08,18,18.50
2006,06,24,08,19,18.60
2006,06,24,08,20,18.60
2006,06,24,08,21,18.70
2006,06,24,08,22,18.70
2006,06,24,08,23,18.80
2006,06,24,08,24,18.90
2006,06,24,08,25,18.90
2006,06,24,08,26,18.90
2006,06,24,08,27,18.90
2006,06,24,08,28,18.90
2006,06,24,08,29,18.90
2006,06,24,08,30,18.90
2006,06,24,08,31,18.90
2006,06,24,08,32,19.00
2006,06,24,08,33,19.10
2006,06,24,08,34,19.10
2006,06,24,08,35,19.10
2006,06,24,08,36,19.20
2006,06,24,08,37,19.30
2006,06,24,08,38,19.40
2006,06,24,08,39,19.50
2006,06,24,08,40,19.60
2006,06,24,08,41,19.70
2006,06,24,08,42,19.80
2006,06,24,08,43,19.80
2006,06,24,08,44,19.80
2006,06,24,08,45,19.90
2006,06,24,08,46,19.90
2006,06,24,08,47,19.90
2006,06,24,08,48,19.90
2006,06,24,08,49,19.90
2006,06,24,08,50,19.90
2006,06,24,08,51,20.00
2006,06,24,08,52,20.00
2006,06,24,08,53,19.90
2006,06,24,08,54,19.90
2006,06,24,08,55,19.90
2006,06,24,08,56,19.90
2006,06,24,08,57,19.90
2006,06,24,08,58,20.00
2006,06,24,08,59,20.10
2006,06,24,09,00,20.20
2006,06,24,09,01,20.30
2006,06,24,09,02,20.40
2006,06,24,09,03,20.50
2006,06,24,09,04,20.60
2006,06,24,09,05,20.60
2006,06,24,09,06,20.70
2006,06,24,09,07,20.70
2006,06,24,09,08,20.60
2006,06,24,09,09,20.50
2006,06,24,09,10,20.60
2006,06,24,09,11,20.60
2006,06,24,09,12,20.60
2006,06,24,09,13,20.60
2006,06,24,09,14,20.60
2006,06,24,09,15,20.50
2006,06,24,09,16,20.40
2006,06,24,09,17,20.40
2006,06,24,09,18,20.50
2006,06,24,09,19,20.50
2006,06,24,09,20,20.50
2006,06,24,09,21,20.50
2006,06,24,09,22,20.50
2006,06,24,09,23,20.60
2006,06,24,09,24,20.60
2006,06,24,09,25,20.60
2006,06,24,09,26,20.70
2006,06,24,09,27,20.70
2006,06,24,09,28,20.80
2006,06,24,09,29,20.90
2006,06,24,09,30,20.90
2006,06,24,09,31,20.90
2006,06,24,09,32,20.90
2006,06,24,09,33,21.00
2006,06,24,09,34,21.00
2006,06,24,09,35,21.00
2006,06,24,09,36,21.00
2006,06,24,09,37,21.10
2006,06,24,09,38,21.10
2006,06,24,09,39,21.10
2006,06,24,09,40,21.00
2006,06,24,09,41,21.10
2006,06,24,09,42,21.10
2006,06,24,09,43,21.10
2006,06,24,09,44,21.20
2006,06,24,09,45,21.20
2006,06,24,09,46,21.20
2006,06,24,09,47,21.20
2006,06,24,09,48,21.10
2006,06,24,09,49,21.10
2006,06,24,09,50,21.10
2006,06,24,09,51,21.10
2006,06,24,09,52,21.10
2006,06,24,09,53,21.30
2006,06,24,09,54,21.30
2006,06,24,09,55,21.40
2006,06,24,09,56,21.40
2006,06,24,09,57,21.40
2006,06,24,09,58,21.30
2006,06,24,09,59,21.40
2006,06,24,10,00,21.50
2006,06,24,10,01,21.60
2006,06,24,10,02,21.70
2006,06,24,10,03,21.70
2006,06,24,10,04,21.70
2006,06,24,10,05,21.60
2006,06,24,10,06,21.30
2006,06,24,10,07,21.10
2006,06,24,10,08,20.90
2006,06,24,10,09,20.80
2006,06,24,10,10,20.70
2006,06,24,10,11,20.60
2006,06,24,10,12,20.60
2006,06,24,10,13,20.70
2006,06,24,10,14,20.70
2006,06,24,10,15,20.70
2006,06,24,10,16,20.70
2006,06,24,10,17,20.70
2006,06,24,10,18,20.70
2006,06,24,10,19,20.60
2006,06,24,10,20,20.50
2006,06,24,10,21,20.40
2006,06,24,10,22,20.30
2006,06,24,10,23,20.10
2006,06,24,10,24,20.00
2006,06,24,10,25,19.90
2006,06,24,10,26,19.90
2006,06,24,10,27,20.00
2006,06,24,10,28,20.20
2006,06,24,10,29,20.10
2006,06,24,10,30,20.00
2006,06,24,10,31,19.90
2006,06,24,10,32,20.00
2006,06,24,10,33,20.20
2006,06,24,10,34,20.40
2006,06,24,10,35,20.40
2006,06,24,10,36,20.40
2006,06,24,10,37,20.40
2006,06,24,10,38,20.40
2006,06,24,10,39,20.40
2006,06,24,10,40,20.40
2006,06,24,10,41,20.50
2006,06,24,10,42,20.30
2006,06,24,10,43,20.20
2006,06,24,10,44,20.20
2006,06,24,10,45,20.10
2006,06,24,10,46,20.00
2006,06,24,10,47,19.90
2006,06,24,10,48,19.80
2006,06,24,10,49,19.80
2006,06,24,10,50,19.80
2006,06,24,10,51,19.90
2006,06,24,10,52,19.90
2006,06,24,10,53,20.00
2006,06,24,10,54,20.10
2006,06,24,10,55,20.20
2006,06,24,10,56,20.20
2006,06,24,10,57,20.20
2006,06,24,10,58,20.30
2006,06,24,10,59,20.30
2006,06,24,11,00,20.30
2006,06,24,11,01,20.20
2006,06,24,11,02,20.00
2006,06,24,11,03,19.90
2006,06,24,11,04,20.00
2006,06,24,11,05,20.10
2006,06,24,11,06,20.20
2006,06,24,11,07,20.20
2006,06,24,11,08,20.30
2006,06,24,11,09,20.30
2006,06,24,11,10,20.30
2006,06,24,11,11,20.20
2006,06,24,11,12,20.10
2006,06,24,11,13,20.10
2006,06,24,11,14,20.20
2006,06,24,11,15,20.30
2006,06,24,11,16,20.30
2006,06,24,11,17,20.30
2006,06,24,11,18,20.30
2006,06,24,11,19,20.50
2006,06,24,11,20,20.60
2006,06,24,11,21,20.80
2006,06,24,11,22,20.80
2006,06,24,11,23,20.80
2006,06,24,11,24,20.80
2006,06,24,11,25,20.90
2006,06,24,11,26,21.00
2006,06,24,11,27,21.00
2006,06,24,11,28,21.00
2006,06,24,11,29,21.00
2006,06,24,11,30,21.10
2006,06,24,11,31,21.30
2006,06,24,11,32,21.30
2006,06,24,11,33,21.40
2006,06,24,11,34,21.50
2006,06,24,11,35,21.60
2006,06,24,11,36,21.80
2006,06,24,11,37,21.90
2006,06,24,11,38,22.00
2006,06,24,11,39,21.90
2006,06,24,11,40,21.70
2006,06,24,11,41,21.60
2006,06,24,11,42,21.50
2006,06,24,11,43,21.40
2006,06,24,11,44,21.60
2006,06,24,11,45,21.70
2006,06,24,11,46,21.80
2006,06,24,11,47,22.00
2006,06,24,11,48,22.10
2006,06,24,11,49,22.20
2006,06,24,11,50,22.20
2006,06,24,11,51,22.20
2006,06,24,11,52,22.20
2006,06,24,11,53,22.10
2006,06,24,11,54,22.10
2006,06,24,11,55,22.10
2006,06,24,11,56,22.00
2006,06,24,11,57,22.00
2006,06,24,11,58,22.00
2006,06,24,11,59,22.00
2006,06,24,12,00,22.10
2006,06,24,12,01,22.20
2006,06,24,12,02,22.10
2006,06,24,12,03,21.90
2006,06,24,12,04,21.90
2006,06,24,12,05,21.80
2006,06,24,12,06,21.90
2006,06,24,12,07,21.90
2006,06,24,12,08,21.90
2006,06,24,12,09,21.60
2006,06,24,12,10,21.40
2006,06,24,12,11,21.30
2006,06,24,12,12,21.20
2006,06,24,12,13,21.10
2006,06,24,12,14,21.10
2006,06,24,12,15,21.00
2006,06,24,12,16,20.90
2006,06,24,12,17,20.80
2006,06,24,12,18,20.90
2006,06,24,12,19,21.10
2006,06,24,12,20,21.30
2006,06,24,12,21,21.40
2006,06,24,12,22,21.40
2006,06,24,12,23,21.50
2006,06,24,12,24,21.70
2006,06,24,12,25,21.80
2006,06,24,12,26,21.80
2006,06,24,12,27,21.80
2006,06,24,12,28,21.70
2006,06,24,12,29,21.70
2006,06,24,12,30,21.80
2006,06,24,12,31,22.00
2006,06,24,12,32,22.10
2006,06,24,12,33,22.00
2006,06,24,12,34,22.00
2006,06,24,12,35,21.90
2006,06,24,12,36,21.90
2006,06,24,12,37,21.90
2006,06,24,12,38,22.00
2006,06,24,12,39,22.10
2006,06,24,12,40,22.20
2006,06,24,12,41,22.30
2006,06,24,12,42,22.40
2006,06,24,12,43,22.40
2006,06,24,12,44,22.50
2006,06,24,12,45,22.50
2006,06,24,12,46,22.60
2006,06,24,12,47,22.80
2006,06,24,12,48,22.80
2006,06,24,12,49,22.90
2006,06,24,12,50,23.10
2006,06,24,12,51,23.20
2006,06,24,12,52,23.10
2006,06,24,12,53,22.90
2006,06,24,12,54,22.90
2006,06,24,12,55,23.00
2006,06,24,12,56,23.10
2006,06,24,12,57,23.20
2006,06,24,12,58,23.30
2006,06,24,12,59,23.50
2006,06,24,13,00,23.60
2006,06,24,13,01,23.60
2006,06,24,13,02,23.40
2006,06,24,13,03,23.20
2006,06,24,13,04,23.20
2006,06,24,13,05,23.00
2006,06,24,13,06,22.90
2006,06,24,13,07,22.90
2006,06,24,13,08,22.90
2006,06,24,13,09,22.90
2006,06,24,13,10,22.90
2006,06,24,13,11,22.70
2006,06,24,13,12,22.60
2006,06,24,13,13,22.60
2006,06,24,13,14,22.50
2006,06,24,13,15,22.30
2006,06,24,13,16,22.30
2006,06,24,13,17,22.40
2006,06,24,13,18,22.40
2006,06,24,13,19,22.60
2006,06,24,13,20,22.70
2006,06,24,13,21,22.80
2006,06,24,13,22,22.80
2006,06,24,13,23,22.80
2006,06,24,13,24,22.70
2006,06,24,13,25,22.60
2006,06,24,13,26,22.60
2006,06,24,13,27,22.60
2006,06,24,13,28,22.60
2006,06,24,13,29,22.40
2006,06,24,13,30,22.40
2006,06,24,13,31,22.40
2006,06,24,13,32,22.30
2006,06,24,13,33,22.40
2006,06,24,13,34,22.50
2006,06,24,13,35,22.60
2006,06,24,13,36,22.70
2006,06,24,13,37,22.90
2006,06,24,13,38,22.90
2006,06,24,13,39,22.90
2006,06,24,13,40,22.90
2006,06,24,13,41,22.80
2006,06,24,13,42,22.90
2006,06,24,13,43,22.90
2006,06,24,13,44,22.80
2006,06,24,13,45,22.80
2006,06,24,13,46,22.80
2006,06,24,13,47,22.60
2006,06,24,13,48,22.50
2006,06,24,13,49,22.50
2006,06,24,13,50,22.70
2006,06,24,13,51,22.90
2006,06,24,13,52,22.80
2006,06,24,13,53,22.80
2006,06,24,13,54,22.90
2006,06,24,13,55,22.90
2006,06,24,13,56,23.00
2006,06,24,13,57,23.10
2006,06,24,13,58,23.20
2006,06,24,13,59,23.30
2006,06,24,14,00,23.30
2006,06,24,14,01,23.30
2006,06,24,14,02,23.30
2006,06,24,14,03,23.40
2006,06,24,14,04,23.40
2006,06,24,14,05,23.50
2006,06,24,14,06,23.60
2006,06,24,14,07,23.60
2006,06,24,14,08,23.60
2006,06,24,14,09,23.60
2006,06,24,14,10,23.60
2006,06,24,14,11,23.50
2006,06,24,14,12,23.40
2006,06,24,14,13,23.30
2006,06,24,14,14,23.30
2006,06,24,14,15,23.10
2006,06,24,14,16,23.10
2006,06,24,14,17,23.10
2006,06,24,14,18,23.20
2006,06,24,14,19,23.30
2006,06,24,14,20,23.30
2006,06,24,14,21,23.30
2006,06,24,14,22,23.40
2006,06,24,14,23,23.40
2006,06,24,14,24,23.50
2006,06,24,14,25,23.50
2006,06,24,14,26,23.40
2006,06,24,14,27,23.20
2006,06,24,14,28,23.20
2006,06,24,14,29,23.10
2006,06,24,14,30,23.10
2006,06,24,14,31,23.10
2006,06,24,14,32,23.20
2006,06,24,14,33,23.20
2006,06,24,14,34,23.10
2006,06,24,14,35,23.10
2006,06,24,14,36,23.10
2006,06,24,14,37,23.10
2006,06,24,14,38,23.00
2006,06,24,14,39,23.00
2006,06,24,14,40,22.90
2006,06,24,14,41,22.90
2006,06,24,14,42,22.90
2006,06,24,14,43,22.90
2006,06,24,14,44,23.00
2006,06,24,14,45,23.10
2006,06,24,14,46,23.00
2006,06,24,14,47,23.10
2006,06,24,14,48,23.20
2006,06,24,14,49,23.40
2006,06,24,14,50,23.40
2006,06,24,14,51,23.40
2006,06,24,14,52,23.40
2006,06,24,14,53,23.30
2006,06,24,14,54,23.30
2006,06,24,14,55,23.40
2006,06,24,14,56,23.60
2006,06,24,14,57,23.70
2006,06,24,14,58,23.90
2006,06,24,14,59,23.90
2006,06,24,15,00,23.90
2006,06,24,15,01,23.70
2006,06,24,15,02,23.60
2006,06,24,15,03,23.50
2006,06,24,15,04,23.40
2006,06,24,15,05,23.50
2006,06,24,15,06,23.60
2006,06,24,15,07,23.70
2006,06,24,15,08,23.80
2006,06,24,15,09,23.80
2006,06,24,15,10,23.90
2006,06,24,15,11,23.90
2006,06,24,15,12,23.90
2006,06,24,15,13,24.10
2006,06,24,15,14,24.10
2006,06,24,15,15,24.10
2006,06,24,15,16,24.20
2006,06,24,15,17,24.20
2006,06,24,15,18,24.10
2006,06,24,15,19,24.20
2006,06,24,15,20,24.40
2006,06,24,15,21,24.50
2006,06,24,15,22,24.60
2006,06,24,15,23,24.70
2006,06,24,15,24,24.60
2006,06,24,15,25,24.50
2006,06,24,15,26,24.50
2006,06,24,15,27,24.40
2006,06,24,15,28,24.40
2006,06,24,15,29,24.40
2006,06,24,15,30,24.30
2006,06,24,15,31,24.40
2006,06,24,15,32,24.40
2006,06,24,15,33,24.40
2006,06,24,15,34,24.40
2006,06,24,15,35,24.40
2006,06,24,15,36,24.40
2006,06,24,15,37,24.20
2006,06,24,15,38,24.10
2006,06,24,15,39,24.10
2006,06,24,15,40,24.20
2006,06,24,15,41,24.30
2006,06,24,15,42,24.40
2006,06,24,15,43,24.40
2006,06,24,15,44,24.20
2006,06,24,15,45,24.10
2006,06,24,15,46,24.10
2006,06,24,15,47,24.20
2006,06,24,15,48,24.40
2006,06,24,15,49,24.50
2006,06,24,15,50,24.50
2006,06,24,15,51,24.60
2006,06,24,15,52,24.70
2006,06,24,15,53,24.90
2006,06,24,15,54,24.90
2006,06,24,15,55,25.10
2006,06,24,15,56,25.10
2006,06,24,15,57,25.10
2006,06,24,15,58,25.10
2006,06,24,15,59,25.10
2006,06,24,16,00,25.00
2006,06,24,16,01,24.90
2006,06,24,16,02,25.00
2006,06,24,16,03,25.00
2006,06,24,16,04,25.10
2006,06,24,16,05,25.30
2006,06,24,16,06,25.30
2006,06,24,16,07,25.10
2006,06,24,16,08,25.00
2006,06,24,16,09,24.90
2006,06,24,16,10,24.90
2006,06,24,16,11,24.80
2006,06,24,16,12,24.70
2006,06,24,16,13,24.80
2006,06,24,16,14,24.90
2006,06,24,16,15,25.00
2006,06,24,16,16,25.20
2006,06,24,16,17,25.20
2006,06,24,16,18,25.20
2006,06,24,16,19,25.40
2006,06,24,16,20,25.50
2006,06,24,16,21,25.60
2006,06,24,16,22,25.60
2006,06,24,16,23,25.50
2006,06,24,16,24,25.50
2006,06,24,16,25,25.50
2006,06,24,16,26,25.50
2006,06,24,16,27,25.50
2006,06,24,16,28,25.60
2006,06,24,16,29,25.60
2006,06,24,16,30,25.60
2006,06,24,16,31,25.60
2006,06,24,16,32,25.60
2006,06,24,16,33,25.40
2006,06,24,16,34,25.20
2006,06,24,16,35,24.90
2006,06,24,16,36,24.80
2006,06,24,16,37,24.60
2006,06,24,16,38,24.40
2006,06,24,16,39,24.30
2006,06,24,16,40,24.20
2006,06,24,16,41,24.20
2006,06,24,16,42,24.20
2006,06,24,16,43,24.30
2006,06,24,16,44,24.30
2006,06,24,16,45,24.30
2006,06,24,16,46,24.30
2006,06,24,16,47,24.30
2006,06,24,16,48,24.40
2006,06,24,16,49,24.50
2006,06,24,16,50,24.60
2006,06,24,16,51,24.70
2006,06,24,16,52,24.70
2006,06,24,16,53,24.70
2006,06,24,16,54,24.80
2006,06,24,16,55,24.80
2006,06,24,16,56,24.90
2006,06,24,16,57,24.80
2006,06,24,16,58,24.70
2006,06,24,16,59,24.70
2006,06,24,17,00,24.70
2006,06,24,17,01,24.50
2006,06,24,17,02,24.40
2006,06,24,17,03,24.30
2006,06,24,17,04,24.20
2006,06,24,17,05,24.20
2006,06,24,17,06,24.30
2006,06,24,17,07,24.30
2006,06,24,17,08,24.40
2006,06,24,17,09,24.50
2006,06,24,17,10,24.50
2006,06,24,17,11,24.60
2006,06,24,17,12,24.60
2006,06,24,17,13,24.60
2006,06,24,17,14,24.50
2006,06,24,17,15,24.50
2006,06,24,17,16,24.40
2006,06,24,17,17,24.50
2006,06,24,17,18,24.50
2006,06,24,17,19,24.50